GW5682 Weather Reports


Display with metric or nautical units.
time (UTC)temp
F
wind
direction
speed
MPH
gust
MPH
rain 1hr
in
rain 24hr
in
rain mn
in
humidity
%
barometer
mb
20260502152131 66 90 4.0 5.0 0.00 0.00 0.00 40 1023.7
20260502151107 65 225 1.0 2.0 0.00 0.00 0.00 41 1023.7
20260502150131 65 0 2.0 3.0 0.00 0.00 0.00 41 1023.8
20260502130131 52 0.0 1.0 0.00 0.00 0.00 96 1023.0
20260502123107 49 0.0 1.0 0.00 0.00 0.00 95 1022.6
20260502122131 48 0.0 1.0 0.00 0.00 0.00 94 1022.4
20260502121107 48 0.0 0.0 0.00 0.00 0.00 95 1022.1
20260502120131 48 0.0 0.0 0.00 0.00 0.00 95 1022.1
20260502115107 48 0.0 0.0 0.00 0.00 0.00 94 1022.0
20260502114131 48 0.0 0.0 0.00 0.00 0.00 94 1021.9
20260502113107 48 0.0 0.0 0.00 0.00 0.00 93 1021.7
20260502112151 48 0.0 0.0 0.00 0.00 0.00 93 1021.7
20260502111127 48 0.0 0.0 0.00 0.00 0.00 93 1021.7
20260502110131 48 0.0 0.0 0.00 0.00 0.00 93 1021.5
20260502105107 49 0.0 0.0 0.00 0.00 0.00 93 1021.3
20260502104131 48 0.0 0.0 0.00 0.00 0.00 93 1020.9
20260502103127 48 0.0 0.0 0.00 0.00 0.00 93 1020.9
20260502102130 49 0.0 0.0 0.00 0.00 0.00 93 1020.9
20260502101107 48 0.0 0.0 0.00 0.00 0.00 92 1021.0
20260502100131 48 0.0 0.0 0.00 0.00 0.00 92 1021.1
20260502091106 49 0.0 0.0 0.00 0.00 0.00 91 1021.0
20260502090131 50 0.0 0.0 0.00 0.00 0.00 91 1021.0
20260502070621 51 0.0 0.0 0.00 0.00 0.00 90 1020.9
20260502065645 51 0.0 0.0 0.00 0.00 0.00 90 1020.9
20260502064621 51 45 1.0 1.0 0.00 0.00 0.00 90 1020.9
20260502063725 52 0.0 1.0 0.00 0.00 0.00 90 1020.9
20260502062621 52 0.0 0.0 0.00 0.00 0.00 89 1020.9
20260502061645 52 0.0 1.0 0.00 0.00 0.00 89 1021.0
20260502060621 52 0.0 0.0 0.00 0.00 0.00 85 1020.9
20260502055645 52 0.0 0.0 0.00 0.00 0.00 85 1020.9
20260502054641 53 0.0 1.0 0.00 0.00 0.00 84 1021.1
20260502053705 53 0.0 0.0 0.00 0.00 0.00 84 1021.0
20260502052621 53 0.0 0.0 0.00 0.00 0.00 83 1021.0
20260502051644 54 0.0 0.0 0.00 0.00 0.00 84 1020.7
20260502050621 54 0.0 0.0 0.00 0.00 0.00 83 1020.7
20260502045705 54 0.0 0.0 0.00 0.00 0.00 83 1020.9
20260502044641 55 0.0 0.0 0.00 0.00 0.00 80 1020.7
20260502043645 55 0.0 1.0 0.00 0.00 0.00 80 1020.9
20260502042621 55 0.0 0.0 0.00 0.00 0.00 80 1020.8
20260502041645 55 0.0 0.0 0.00 0.00 0.00 79 1020.8
20260502040621 56 0.0 0.0 0.00 0.01 0.00 78 1020.8
20260502035705 56 0.0 0.0 0.00 0.01 0.00 78 1020.7
20260502034641 56 0.0 0.0 0.00 0.01 0.00 78 1020.6
20260502033644 56 0.0 0.0 0.00 0.01 0.00 77 1020.8
20260502032621 56 0.0 0.0 0.00 0.01 0.00 77 1020.6
20260502031705 56 0.0 0.0 0.00 0.01 0.00 76 1020.7
20260502030641 57 0.0 0.0 0.00 0.01 0.00 75 1020.4
20260502025645 57 0.0 0.0 0.00 0.01 0.00 75 1020.4
20260502024621 58 0.0 0.0 0.00 0.01 0.00 74 1020.5
20260502023644 58 0.0 0.0 0.00 0.01 0.00 74 1020.4
20260502022621 58 0.0 0.0 0.00 0.01 0.00 73 1020.2
20260502021645 58 0.0 0.0 0.00 0.01 0.00 73 1020.1
20260502020621 58 0.0 0.0 0.00 0.01 0.00 73 1020.0
20260502015645 58 0.0 0.0 0.00 0.01 0.00 72 1019.5
20260502014621 59 0.0 0.0 0.00 0.01 0.00 72 1019.5
20260502013645 59 0.0 0.0 0.00 0.01 0.00 72 1019.2
20260502012621 59 0.0 0.0 0.00 0.01 0.00 71 1019.0
20260502011645 60 0.0 0.0 0.00 0.01 0.00 71 1018.9
20260502010621 60 0.0 0.0 0.00 0.01 0.00 70 1018.9
20260502005645 60 0.0 0.0 0.00 0.01 0.00 70 1018.6
20260502004621 61 0.0 0.0 0.00 0.01 0.00 69 1018.6
20260502003705 62 0.0 0.0 0.00 0.01 0.00 68 1018.3
20260502002621 62 0.0 0.0 0.00 0.01 0.00 66 1018.3
20260502001644 62 135 1.0 1.0 0.00 0.01 0.00 65 1018.0
20260502000621 63 0.0 0.0 0.00 0.01 0.00 65 1018.1
20260501235645 63 0.0 0.0 0.00 0.01 0.00 64 1017.7
20260501234621 64 0.0 0.0 0.00 0.01 0.00 60 1017.7
20260501233645 64 90 1.0 1.0 0.00 0.01 0.00 60 1017.6
20260501232621 64 0.0 1.0 0.00 0.01 0.00 60 1017.6
20260501231645 64 90 1.0 2.0 0.00 0.01 0.00 58 1017.4
20260501230621 64 90 1.0 2.0 0.00 0.01 0.00 57 1017.4
20260501225645 64 180 1.0 2.0 0.00 0.01 0.00 55 1017.2
20260501224620 65 225 1.0 1.0 0.00 0.01 0.00 54 1017.2
20260501223705 65 90 1.0 1.0 0.00 0.01 0.00 54 1017.4
20260501222621 65 90 1.0 2.0 0.00 0.01 0.00 52 1017.3
20260501221645 65 0 3.0 4.0 0.00 0.01 0.00 51 1017.3
20260501220621 65 0.0 0.0 0.00 0.01 0.00 52 1017.4
20260501215705 65 180 2.0 3.0 0.00 0.01 0.00 51 1017.3
20260501214621 65 90 3.0 3.0 0.00 0.01 0.00 50 1017.2
20260501213725 65 45 2.0 3.0 0.00 0.01 0.00 49 1017.2
20260501212621 65 315 5.0 6.0 0.00 0.01 0.00 49 1017.1
20260501211645 65 45 5.0 5.0 0.00 0.01 0.00 47 1017.3
20260501210620 66 135 3.0 4.0 0.00 0.01 0.00 49 1017.6
20260501205645 66 90 4.0 5.0 0.00 0.01 0.00 47 1017.8
20260501204621 65 0 5.0 7.0 0.00 0.01 0.00 50 1018.0
20260501203645 64 180 5.0 8.0 0.00 0.01 0.00 50 1018.4
20260501202641 64 45 6.0 9.0 0.00 0.01 0.00 49 1018.5
20260501201645 64 45 4.0 7.0 0.00 0.01 0.00 46 1018.6
20260501200621 63 90 4.0 5.0 0.00 0.01 0.00 50 1018.2
20260501195705 63 45 7.0 9.0 0.00 0.01 0.00 50 1018.1
20260501194621 64 338 5.0 7.0 0.00 0.01 0.00 46 1017.6
20260501193645 64 338 9.0 11.0 0.00 0.01 0.00 45 1018.0
20260501192621 64 135 11.0 14.0 0.00 0.01 0.00 45 1017.7
20260501191705 64 0 9.0 12.0 0.00 0.01 0.00 47 1017.8
20260501190641 65 0 8.0 10.0 0.00 0.01 0.00 46 1017.9
20260501185645 65 45 11.0 15.0 0.00 0.01 0.00 44 1017.3
20260501184621 65 45 6.0 7.0 0.00 0.01 0.00 45 1018.0
20260501183645 65 90 11.0 15.0 0.00 0.01 0.00 43 1018.1
20260501182621 64 90 8.0 13.0 0.00 0.01 0.00 43 1018.1
20260501181645 65 90 9.0 11.0 0.00 0.01 0.00 48 1018.3
20260501180621 65 0 6.0 11.0 0.00 0.01 0.00 49 1018.6
20260501175725 65 45 5.0 8.0 0.00 0.01 0.00 49 1018.6
20260501174621 65 45 10.0 14.0 0.00 0.01 0.00 51 1019.0
20260501173645 65 338 8.0 11.0 0.00 0.01 0.00 51 1019.2
20260501172641 64 0 5.0 7.0 0.00 0.01 0.00 55 1019.2
20260501171645 63 90 6.0 9.0 0.00 0.01 0.00 58 1019.2
20260501170621 63 23 8.0 10.0 0.00 0.01 0.00 61 1019.2
20260501165644 62 45 7.0 10.0 0.00 0.01 0.00 62 1019.7
20260501164621 61 0 10.0 15.0 0.00 0.01 0.00 66 1019.6
20260501163644 60 0 3.0 5.0 0.00 0.01 0.00 70 1019.6
20260501162621 59 45 4.0 5.0 0.00 0.01 0.00 70 1019.8
20260501161644 58 0 5.0 6.0 0.00 0.01 0.00 70 1019.7
20260501160621 58 45 3.0 4.0 0.00 0.01 0.00 71 1020.1
20260501155645 58 90 2.0 3.0 0.00 0.01 0.00 71 1020.1
20260501153644 57 45 1.0 2.0 0.00 0.01 0.00 71 1019.7